| time (UTC) | temp F | wind direction | speed MPH | gust MPH | rain 1hr in | rain 24hr in | rain mn in | humidity % | barometer mb |
| 20260510023043 | 66 | 0 | 0.0 | 0.0 | 0.00 | 0.00 | 0.00 | 60 | 1011.0 |
| 20260510022529 | 66 | 0 | 0.0 | 0.0 | 0.00 | 0.00 | 0.00 | 60 | 1011.1 |
| 20260510022029 | 66 | 0 | 0.0 | 0.0 | 0.00 | 0.00 | 0.00 | 59 | 1011.0 |
| 20260510021544 | 66 | 0 | 0.0 | 0.0 | 0.00 | 0.00 | 0.00 | 59 | 1011.0 |
| 20260510021028 | 66 | 0 | 0.0 | 0.0 | 0.00 | 0.00 | 0.00 | 59 | 1010.9 |
| 20260510020530 | 66 | 0 | 0.0 | 0.0 | 0.00 | 0.00 | 0.00 | 58 | 1010.7 |
| 20260510020044 | 66 | 0 | 0.0 | 0.0 | 0.00 | 0.00 | 0.00 | 58 | 1010.6 |
| 20260510015529 | 67 | 0 | 0.0 | 0.0 | 0.00 | 0.00 | 0.00 | 58 | 1010.5 |
| 20260510015031 | 67 | 0 | 0.0 | 0.0 | 0.00 | 0.00 | 0.00 | 57 | 1010.6 |
| 20260510014541 | 67 | 0 | 0.0 | 0.0 | 0.00 | 0.00 | 0.00 | 57 | 1010.4 |
| 20260510014032 | 67 | 0 | 0.0 | 0.0 | 0.00 | 0.00 | 0.00 | 56 | 1010.3 |
| 20260510013531 | 67 | 0 | 0.0 | 1.0 | 0.00 | 0.00 | 0.00 | 55 | 1010.2 |
| 20260510013040 | 68 | 0 | 0.0 | 1.0 | 0.00 | 0.00 | 0.00 | 55 | 1010.1 |
| 20260510012529 | 68 | 0 | 0.0 | 0.0 | 0.00 | 0.00 | 0.00 | 54 | 1009.8 |
| 20260510012030 | 68 | 0 | 0.0 | 0.0 | 0.00 | 0.00 | 0.00 | 54 | 1009.9 |
| 20260510011545 | 69 | 0 | 0.0 | 0.0 | 0.00 | 0.00 | 0.00 | 53 | 1009.8 |
| 20260510011029 | 69 | 0 | 0.0 | 0.0 | 0.00 | 0.00 | 0.00 | 53 | 1009.7 |
| 20260510010528 | 69 | 0 | 0.0 | 1.0 | 0.00 | 0.00 | 0.00 | 52 | 1009.6 |
| 20260510010046 | 70 | 0 | 0.0 | 1.0 | 0.00 | 0.00 | 0.00 | 51 | 1009.5 |
| 20260510005528 | 70 | 0 | 0.0 | 1.0 | 0.00 | 0.00 | 0.00 | 51 | 1009.4 |
| 20260510005030 | 70 | 208 | 0.0 | 1.0 | 0.00 | 0.00 | 0.00 | 50 | 1009.4 |
| 20260510004543 | 71 | 0 | 0.0 | 1.0 | 0.00 | 0.00 | 0.00 | 49 | 1009.2 |
| 20260510004051 | 72 | 0 | 0.0 | 0.0 | 0.00 | 0.00 | 0.00 | 48 | 1009.1 |
| 20260510003530 | 72 | 0 | 0.0 | 0.0 | 0.00 | 0.00 | 0.00 | 47 | 1009.1 |
| 20260510003047 | 73 | 0 | 0.0 | 0.0 | 0.00 | 0.00 | 0.00 | 46 | 1009.0 |
| 20260510002531 | 74 | 0 | 0.0 | 1.0 | 0.00 | 0.00 | 0.00 | 46 | 1009.0 |
| 20260510002030 | 74 | 0 | 0.0 | 2.0 | 0.00 | 0.00 | 0.00 | 45 | 1009.0 |
| 20260510001552 | 75 | 0 | 0.0 | 2.0 | 0.00 | 0.00 | 0.00 | 44 | 1008.8 |
| 20260510001030 | 76 | 0 | 0.0 | 2.0 | 0.00 | 0.00 | 0.00 | 44 | 1008.9 |
| 20260510000529 | 76 | 0 | 0.0 | 2.0 | 0.00 | 0.00 | 0.00 | 43 | 1008.8 |
| 20260510000046 | 77 | 0 | 0.0 | 2.0 | 0.00 | 0.00 | 0.00 | 42 | 1008.6 |
| 20260509235528 | 77 | 0 | 0.0 | 6.0 | 0.00 | 0.00 | 0.00 | 42 | 1008.6 |
| 20260509235032 | 77 | 0 | 0.0 | 6.0 | 0.00 | 0.00 | 0.00 | 41 | 1008.4 |
| 20260509234543 | 78 | 15 | 0.0 | 3.0 | 0.00 | 0.00 | 0.00 | 40 | 1008.4 |
| 20260509234032 | 78 | 0 | 0.0 | 5.0 | 0.00 | 0.00 | 0.00 | 40 | 1008.5 |
| 20260509233529 | 78 | 86 | 0.0 | 5.0 | 0.00 | 0.00 | 0.00 | 39 | 1008.5 |
| 20260509233050 | 78 | 0 | 0.0 | 2.0 | 0.00 | 0.00 | 0.00 | 40 | 1008.4 |
| 20260509232532 | 77 | 0 | 0.0 | 4.0 | 0.00 | 0.00 | 0.00 | 40 | 1008.5 |
| 20260509232032 | 78 | 224 | 0.0 | 6.0 | 0.00 | 0.00 | 0.00 | 40 | 1008.5 |
| 20260509231545 | 77 | 0 | 1.0 | 6.0 | 0.00 | 0.00 | 0.00 | 40 | 1008.4 |
| 20260509231032 | 78 | 195 | 0.0 | 3.0 | 0.00 | 0.00 | 0.00 | 40 | 1008.5 |
| 20260509230532 | 78 | 162 | 0.0 | 6.0 | 0.00 | 0.00 | 0.00 | 40 | 1008.4 |
| 20260509230040 | 78 | 0 | 0.0 | 6.0 | 0.00 | 0.00 | 0.00 | 39 | 1008.6 |
| 20260509225529 | 78 | 186 | 1.0 | 9.0 | 0.00 | 0.00 | 0.00 | 39 | 1008.5 |
| 20260509225035 | 78 | 113 | 2.0 | 12.0 | 0.00 | 0.00 | 0.00 | 39 | 1008.5 |
| 20260509224555 | 78 | 35 | 1.0 | 12.0 | 0.00 | 0.00 | 0.00 | 42 | 1008.5 |
| 20260509224030 | 78 | 34 | 1.0 | 10.0 | 0.00 | 0.00 | 0.00 | 39 | 1008.3 |
| 20260509223529 | 78 | 0 | 1.0 | 6.0 | 0.00 | 0.00 | 0.00 | 40 | 1008.3 |
| 20260509223047 | 78 | 189 | 1.0 | 6.0 | 0.00 | 0.00 | 0.00 | 40 | 1008.3 |
| 20260509222532 | 78 | 30 | 2.0 | 6.0 | 0.00 | 0.00 | 0.00 | 40 | 1008.3 |
| 20260509222028 | 79 | 0 | 0.0 | 6.0 | 0.00 | 0.00 | 0.00 | 40 | 1008.5 |
| 20260509221558 | 79 | 0 | 1.0 | 6.0 | 0.00 | 0.00 | 0.00 | 39 | 1008.5 |
| 20260509221031 | 78 | 0 | 1.0 | 9.0 | 0.00 | 0.00 | 0.00 | 40 | 1008.5 |
| 20260509220531 | 78 | 45 | 2.0 | 9.0 | 0.00 | 0.00 | 0.00 | 40 | 1008.3 |
| 20260509220043 | 79 | 329 | 1.0 | 6.0 | 0.00 | 0.00 | 0.00 | 38 | 1008.3 |
| 20260509215532 | 79 | 20 | 0.0 | 6.0 | 0.00 | 0.00 | 0.00 | 40 | 1008.3 |
| 20260509215029 | 79 | 219 | 1.0 | 5.0 | 0.00 | 0.00 | 0.00 | 41 | 1008.3 |
| 20260509214544 | 78 | 0 | 1.0 | 5.0 | 0.00 | 0.00 | 0.00 | 41 | 1008.4 |
| 20260509214031 | 78 | 0 | 0.0 | 5.0 | 0.00 | 0.00 | 0.00 | 41 | 1008.3 |
| 20260509213528 | 78 | 27 | 2.0 | 6.0 | 0.00 | 0.00 | 0.00 | 41 | 1008.5 |
| 20260509213046 | 78 | 336 | 2.0 | 9.0 | 0.00 | 0.00 | 0.00 | 40 | 1008.4 |
| 20260509212529 | 77 | 323 | 2.0 | 9.0 | 0.00 | 0.00 | 0.00 | 38 | 1008.4 |
| 20260509212033 | 79 | 197 | 2.0 | 9.0 | 0.00 | 0.00 | 0.00 | 38 | 1008.4 |
| 20260509211539 | 79 | 0 | 0.0 | 4.0 | 0.00 | 0.00 | 0.00 | 42 | 1008.4 |
| 20260509211032 | 78 | 52 | 1.0 | 4.0 | 0.00 | 0.00 | 0.00 | 41 | 1008.6 |
| 20260509210529 | 78 | 357 | 1.0 | 7.0 | 0.00 | 0.00 | 0.00 | 42 | 1008.5 |
| 20260509210039 | 77 | 0 | 1.0 | 10.0 | 0.00 | 0.00 | 0.00 | 41 | 1008.5 |
| 20260509205528 | 77 | 347 | 1.0 | 10.0 | 0.00 | 0.00 | 0.00 | 40 | 1008.5 |
| 20260509205031 | 78 | 235 | 1.0 | 10.0 | 0.00 | 0.00 | 0.00 | 45 | 1008.6 |
| 20260509204547 | 78 | 181 | 3.0 | 10.0 | 0.00 | 0.00 | 0.00 | 45 | 1008.6 |
| 20260509204029 | 78 | 113 | 1.0 | 6.0 | 0.00 | 0.00 | 0.00 | 47 | 1008.8 |
| 20260509203528 | 77 | 175 | 2.0 | 6.0 | 0.00 | 0.00 | 0.00 | 44 | 1008.8 |
| 20260509203044 | 78 | 94 | 0.0 | 5.0 | 0.00 | 0.00 | 0.00 | 41 | 1008.8 |
| 20260509202528 | 77 | 94 | 0.0 | 5.0 | 0.00 | 0.00 | 0.00 | 42 | 1008.7 |
| 20260509202033 | 77 | 269 | 1.0 | 8.0 | 0.00 | 0.00 | 0.00 | 45 | 1008.8 |
| 20260509201553 | 75 | 104 | 2.0 | 8.0 | 0.00 | 0.00 | 0.00 | 47 | 1009.0 |
| 20260509201028 | 75 | 16 | 5.0 | 9.0 | 0.00 | 0.00 | 0.00 | 45 | 1008.8 |
| 20260509200529 | 76 | 325 | 2.0 | 9.0 | 0.00 | 0.00 | 0.00 | 47 | 1008.8 |
| 20260509200054 | 76 | 163 | 4.0 | 9.0 | 0.00 | 0.00 | 0.00 | 49 | 1008.8 |
| 20260509195529 | 76 | 72 | 1.0 | 7.0 | 0.00 | 0.00 | 0.00 | 49 | 1008.9 |
| 20260509195031 | 77 | 31 | 0.0 | 7.0 | 0.00 | 0.00 | 0.00 | 48 | 1009.0 |
| 20260509194546 | 76 | 262 | 1.0 | 7.0 | 0.00 | 0.00 | 0.00 | 49 | 1009.0 |
| 20260509194029 | 74 | 35 | 2.0 | 9.0 | 0.00 | 0.00 | 0.00 | 51 | 1009.0 |
| 20260509193532 | 74 | 25 | 4.0 | 9.0 | 0.00 | 0.00 | 0.00 | 49 | 1009.0 |
| 20260509193046 | 75 | 333 | 3.0 | 9.0 | 0.00 | 0.00 | 0.00 | 50 | 1009.1 |
| 20260509192531 | 75 | 0 | 2.0 | 9.0 | 0.00 | 0.00 | 0.00 | 51 | 1009.2 |
| 20260509192032 | 75 | 70 | 1.0 | 6.0 | 0.00 | 0.00 | 0.00 | 50 | 1009.2 |
| 20260509191544 | 76 | 310 | 0.0 | 7.0 | 0.00 | 0.00 | 0.00 | 49 | 1009.3 |
| 20260509191035 | 75 | 0 | 1.0 | 7.0 | 0.00 | 0.00 | 0.00 | 49 | 1009.3 |
| 20260509190528 | 75 | 9 | 1.0 | 7.0 | 0.00 | 0.00 | 0.00 | 51 | 1009.2 |
| 20260509190051 | 74 | 103 | 2.0 | 8.0 | 0.00 | 0.00 | 0.00 | 50 | 1009.2 |
| 20260509185528 | 73 | 72 | 2.0 | 8.0 | 0.00 | 0.00 | 0.00 | 53 | 1009.3 |
| 20260509185028 | 75 | 166 | 1.0 | 9.0 | 0.00 | 0.00 | 0.00 | 51 | 1009.4 |
| 20260509184541 | 74 | 288 | 2.0 | 11.0 | 0.00 | 0.00 | 0.00 | 53 | 1009.4 |
| 20260509184028 | 74 | 153 | 5.0 | 11.0 | 0.00 | 0.00 | 0.00 | 52 | 1009.3 |
| 20260509183529 | 73 | 119 | 1.0 | 9.0 | 0.00 | 0.00 | 0.00 | 52 | 1009.4 |
| 20260509183044 | 72 | 5 | 5.0 | 9.0 | 0.00 | 0.00 | 0.00 | 54 | 1009.5 |
| 20260509182529 | 73 | 28 | 2.0 | 5.0 | 0.00 | 0.00 | 0.00 | 53 | 1009.5 |
| 20260509182028 | 73 | 106 | 0.0 | 6.0 | 0.00 | 0.00 | 0.00 | 53 | 1009.5 |
| 20260509181547 | 72 | 118 | 2.0 | 10.0 | 0.00 | 0.00 | 0.00 | 56 | 1009.4 |
| 20260509181029 | 73 | 341 | 2.0 | 13.0 | 0.00 | 0.00 | 0.00 | 55 | 1009.6 |
| 20260509180529 | 71 | 40 | 2.0 | 13.0 | 0.00 | 0.00 | 0.00 | 56 | 1009.5 |
| 20260509180051 | 71 | 349 | 1.0 | 10.0 | 0.00 | 0.00 | 0.00 | 56 | 1009.4 |
| 20260509175528 | 70 | 60 | 4.0 | 10.0 | 0.00 | 0.00 | 0.00 | 56 | 1009.5 |
| 20260509175028 | 71 | 1 | 5.0 | 10.0 | 0.00 | 0.00 | 0.00 | 57 | 1009.5 |
| 20260509174544 | 72 | 26 | 3.0 | 9.0 | 0.00 | 0.00 | 0.00 | 57 | 1009.5 |
| 20260509174029 | 70 | 18 | 4.0 | 9.0 | 0.00 | 0.00 | 0.00 | 57 | 1009.6 |
| 20260509173532 | 71 | 54 | 2.0 | 7.0 | 0.00 | 0.00 | 0.00 | 57 | 1009.6 |
| 20260509173047 | 72 | 109 | 1.0 | 7.0 | 0.00 | 0.00 | 0.00 | 58 | 1009.5 |
| 20260509172528 | 72 | 227 | 1.0 | 9.0 | 0.00 | 0.00 | 0.00 | 55 | 1009.6 |
| 20260509172027 | 70 | 0 | 1.0 | 9.0 | 0.00 | 0.00 | 0.00 | 61 | 1009.6 |
| 20260509171548 | 70 | 26 | 2.0 | 8.0 | 0.00 | 0.00 | 0.00 | 59 | 1009.7 |
| 20260509171028 | 69 | 348 | 3.0 | 9.0 | 0.00 | 0.00 | 0.00 | 58 | 1009.6 |
| 20260509170533 | 69 | 338 | 4.0 | 9.0 | 0.00 | 0.00 | 0.00 | 59 | 1009.6 |
| 20260509170049 | 71 | 11 | 0.0 | 8.0 | 0.00 | 0.00 | 0.00 | 60 | 1009.7 |
| 20260509165528 | 70 | 0 | 0.0 | 11.0 | 0.00 | 0.00 | 0.00 | 62 | 1009.7 |
| 20260509165030 | 69 | 311 | 5.0 | 11.0 | 0.00 | 0.00 | 0.00 | 61 | 1009.8 |
| 20260509164550 | 69 | 360 | 4.0 | 11.0 | 0.00 | 0.00 | 0.00 | 60 | 1009.8 |
| 20260509164028 | 70 | 0 | 1.0 | 7.0 | 0.00 | 0.00 | 0.00 | 61 | 1009.8 |
| 20260509163530 | 70 | 0 | 0.0 | 4.0 | 0.00 | 0.00 | 0.00 | 59 | 1009.6 |
| 20260509163043 | 69 | 360 | 1.0 | 5.0 | 0.00 | 0.00 | 0.00 | 61 | 1009.6 |
| 20260509162527 | 69 | 63 | 0.0 | 7.0 | 0.00 | 0.00 | 0.00 | 61 | 1009.6 |
| 20260509162028 | 68 | 328 | 3.0 | 7.0 | 0.00 | 0.00 | 0.00 | 60 | 1009.5 |
| 20260509161548 | 69 | 10 | 2.0 | 7.0 | 0.00 | 0.00 | 0.00 | 56 | 1009.5 |
| 20260509161028 | 69 | 164 | 0.0 | 11.0 | 0.00 | 0.00 | 0.00 | 62 | 1009.5 |
| 20260509160529 | 67 | 340 | 6.0 | 11.0 | 0.00 | 0.00 | 0.00 | 60 | 1009.4 |
| 20260509160047 | 70 | 1 | 0.0 | 3.0 | 0.00 | 0.00 | 0.00 | 61 | 1009.5 |
| 20260509155527 | 70 | 172 | 0.0 | 5.0 | 0.00 | 0.00 | 0.00 | 59 | 1009.5 |
| 20260509155027 | 69 | 0 | 1.0 | 5.0 | 0.00 | 0.00 | 0.00 | 63 | 1009.3 |
| 20260509154545 | 69 | 178 | 1.0 | 5.0 | 0.00 | 0.00 | 0.00 | 64 | 1009.3 |
| 20260509154027 | 68 | 141 | 2.0 | 5.0 | 0.00 | 0.00 | 0.00 | 65 | 1009.3 |
| 20260509153528 | 68 | 17 | 0.0 | 10.0 | 0.00 | 0.00 | 0.00 | 65 | 1009.2 |
| 20260509153050 | 68 | 179 | 2.0 | 10.0 | 0.00 | 0.00 | 0.00 | 66 | 1009.1 |
| 20260509152528 | 67 | 181 | 3.0 | 9.0 | 0.00 | 0.00 | 0.00 | 65 | 1009.3 |
| 20260509152029 | 67 | 120 | 2.0 | 6.0 | 0.00 | 0.00 | 0.00 | 65 | 1009.3 |
| 20260509151543 | 67 | 60 | 1.0 | 9.0 | 0.00 | 0.00 | 0.00 | 66 | 1009.3 |
| 20260509151028 | 67 | 0 | 3.0 | 9.0 | 0.00 | 0.00 | 0.00 | 67 | 1009.2 |
| 20260509150531 | 67 | 25 | 0.0 | 7.0 | 0.00 | 0.00 | 0.00 | 67 | 1009.2 |
| 20260509150051 | 67 | 0 | 0.0 | 11.0 | 0.00 | 0.00 | 0.00 | 68 | 1009.2 |
| 20260509145531 | 66 | 177 | 2.0 | 11.0 | 0.00 | 0.00 | 0.00 | 66 | 1009.2 |
| 20260509145031 | 66 | 16 | 0.0 | 8.0 | 0.00 | 0.00 | 0.00 | 68 | 1009.1 |
| 20260509144546 | 65 | 243 | 1.0 | 8.0 | 0.00 | 0.00 | 0.00 | 68 | 1009.1 |
| 20260509144028 | 65 | 348 | 1.0 | 6.0 | 0.00 | 0.00 | 0.00 | 68 | 1009.0 |
| 20260509143531 | 64 | 0 | 1.0 | 7.0 | 0.00 | 0.00 | 0.00 | 69 | 1009.0 |
| 20260509143048 | 65 | 126 | 0.0 | 7.0 | 0.00 | 0.00 | 0.00 | 68 | 1008.9 |
| 20260509142529 | 65 | 238 | 0.0 | 5.0 | 0.00 | 0.00 | 0.00 | 69 | 1008.9 |
| 20260509142033 | 64 | 0 | 2.0 | 9.0 | 0.00 | 0.00 | 0.00 | 69 | 1008.9 |
| 20260509141546 | 64 | 0 | 2.0 | 10.0 | 0.00 | 0.00 | 0.00 | 70 | 1009.0 |
| 20260509141032 | 64 | 175 | 2.0 | 10.0 | 0.00 | 0.00 | 0.00 | 70 | 1009.0 |
| 20260509140531 | 63 | 79 | 1.0 | 6.0 | 0.00 | 0.00 | 0.00 | 70 | 1009.0 |
| 20260509140048 | 63 | 125 | 0.0 | 6.0 | 0.00 | 0.00 | 0.00 | 71 | 1009.1 |
| 20260509135531 | 62 | 0 | 1.0 | 6.0 | 0.00 | 0.00 | 0.00 | 72 | 1009.0 |
| 20260509135034 | 61 | 231 | 2.0 | 5.0 | 0.00 | 0.00 | 0.00 | 73 | 1009.0 |
| 20260509134607 | 60 | 0 | 1.0 | 7.0 | 0.00 | 0.00 | 0.00 | 75 | 1008.9 |
| 20260509134031 | 59 | 172 | 1.0 | 7.0 | 0.00 | 0.00 | 0.00 | 77 | 1009.1 |
| 20260509133532 | 59 | 219 | 1.0 | 5.0 | 0.00 | 0.00 | 0.00 | 77 | 1009.0 |
| 20260509133041 | 59 | 0 | 0.0 | 3.0 | 0.00 | 0.00 | 0.00 | 78 | 1009.0 |
| 20260509132531 | 58 | 0 | 0.0 | 2.0 | 0.00 | 0.00 | 0.00 | 79 | 1009.1 |
| 20260509132031 | 58 | 0 | 0.0 | 2.0 | 0.00 | 0.00 | 0.00 | 80 | 1009.0 |
| 20260509131551 | 57 | 157 | 0.0 | 2.0 | 0.00 | 0.00 | 0.00 | 80 | 1008.9 |
| 20260509131032 | 57 | 0 | 0.0 | 1.0 | 0.00 | 0.00 | 0.00 | 80 | 1009.1 |
| 20260509130531 | 57 | 153 | 0.0 | 1.0 | 0.00 | 0.00 | 0.00 | 80 | 1009.1 |
| 20260509130044 | 57 | 0 | 0.0 | 0.0 | 0.00 | 0.00 | 0.00 | 81 | 1009.0 |
| 20260509125532 | 57 | 0 | 0.0 | 0.0 | 0.00 | 0.00 | 0.00 | 80 | 1009.0 |
| 20260509125036 | 57 | 0 | 0.0 | 0.0 | 0.00 | 0.00 | 0.00 | 82 | 1009.0 |
| 20260509124542 | 56 | 0 | 0.0 | 0.0 | 0.00 | 0.00 | 0.00 | 82 | 1008.9 |
| 20260509124030 | 56 | 0 | 0.0 | 0.0 | 0.00 | 0.00 | 0.00 | 82 | 1008.9 |
| 20260509123531 | 56 | 0 | 0.0 | 0.0 | 0.00 | 0.00 | 0.00 | 81 | 1008.9 |
| 20260509123043 | 56 | 0 | 0.0 | 0.0 | 0.00 | 0.00 | 0.00 | 82 | 1009.0 |
| 20260509122531 | 56 | 0 | 0.0 | 0.0 | 0.00 | 0.00 | 0.00 | 82 | 1008.8 |
| 20260509122031 | 56 | 0 | 0.0 | 1.0 | 0.00 | 0.00 | 0.00 | 81 | 1008.8 |
| 20260509121546 | 56 | 0 | 0.0 | 1.0 | 0.00 | 0.00 | 0.00 | 82 | 1008.7 |
| 20260509121031 | 56 | 0 | 0.0 | 1.0 | 0.00 | 0.00 | 0.00 | 81 | 1008.8 |
| 20260509120531 | 56 | 0 | 0.0 | 1.0 | 0.00 | 0.00 | 0.00 | 82 | 1008.6 |
| 20260509120048 | 55 | 153 | 0.0 | 0.0 | 0.00 | 0.00 | 0.00 | 81 | 1008.8 |
| 20260509115530 | 55 | 0 | 0.0 | 1.0 | 0.00 | 0.00 | 0.00 | 81 | 1008.9 |
| 20260509115031 | 56 | 0 | 0.0 | 1.0 | 0.00 | 0.00 | 0.00 | 81 | 1008.8 |
| 20260509114545 | 56 | 0 | 0.0 | 1.0 | 0.00 | 0.00 | 0.00 | 80 | 1008.5 |
| 20260509114029 | 56 | 0 | 0.0 | 0.0 | 0.00 | 0.00 | 0.00 | 80 | 1008.1 |
| 20260509113531 | 56 | 0 | 0.0 | 0.0 | 0.00 | 0.00 | 0.00 | 79 | 1008.1 |
| 20260509113052 | 56 | 0 | 0.0 | 0.0 | 0.00 | 0.00 | 0.00 | 79 | 1008.0 |
| 20260509112531 | 56 | 0 | 0.0 | 1.0 | 0.00 | 0.00 | 0.00 | 79 | 1008.0 |
| 20260509112031 | 56 | 0 | 0.0 | 1.0 | 0.00 | 0.00 | 0.00 | 79 | 1008.0 |
| 20260509111544 | 56 | 106 | 0.0 | 1.0 | 0.00 | 0.00 | 0.00 | 79 | 1008.0 |
| 20260509111030 | 56 | 0 | 0.0 | 2.0 | 0.00 | 0.00 | 0.00 | 79 | 1007.9 |
| 20260509110534 | 56 | 0 | 0.0 | 2.0 | 0.00 | 0.00 | 0.00 | 79 | 1007.8 |
| 20260509110042 | 56 | 0 | 0.0 | 1.0 | 0.00 | 0.00 | 0.00 | 78 | 1007.7 |
| 20260509105531 | 56 | 0 | 0.0 | 1.0 | 0.00 | 0.00 | 0.00 | 78 | 1007.8 |
| 20260509105031 | 56 | 0 | 0.0 | 2.0 | 0.00 | 0.00 | 0.00 | 78 | 1007.8 |
| 20260509104545 | 56 | 0 | 0.0 | 2.0 | 0.00 | 0.00 | 0.00 | 78 | 1007.7 |
| 20260509104030 | 56 | 149 | 0.0 | 2.0 | 0.00 | 0.00 | 0.00 | 78 | 1007.7 |
| 20260509103528 | 56 | 150 | 0.0 | 1.0 | 0.00 | 0.00 | 0.00 | 78 | 1007.6 |
| 20260509103045 | 56 | 0 | 0.0 | 1.0 | 0.00 | 0.00 | 0.00 | 79 | 1007.7 |
| 20260509102534 | 56 | 0 | 0.0 | 0.0 | 0.00 | 0.00 | 0.00 | 80 | 1007.7 |
| 20260509102031 | 56 | 0 | 0.0 | 0.0 | 0.00 | 0.00 | 0.00 | 80 | 1007.7 |
| 20260509101551 | 56 | 0 | 0.0 | 0.0 | 0.00 | 0.00 | 0.00 | 79 | 1008.0 |
| 20260509101030 | 56 | 0 | 0.0 | 0.0 | 0.00 | 0.00 | 0.00 | 79 | 1008.0 |
| 20260509100528 | 56 | 0 | 0.0 | 0.0 | 0.00 | 0.00 | 0.00 | 78 | 1008.1 |
| 20260509100048 | 56 | 0 | 0.0 | 0.0 | 0.00 | 0.00 | 0.00 | 77 | 1008.1 |
| 20260509095530 | 56 | 0 | 0.0 | 0.0 | 0.00 | 0.00 | 0.00 | 78 | 1008.0 |
| 20260509095031 | 56 | 0 | 0.0 | 0.0 | 0.00 | 0.00 | 0.00 | 77 | 1008.1 |
| 20260509094548 | 56 | 0 | 0.0 | 0.0 | 0.00 | 0.00 | 0.00 | 75 | 1008.0 |
| 20260509094031 | 57 | 0 | 0.0 | 0.0 | 0.00 | 0.00 | 0.00 | 75 | 1007.9 |
| 20260509093532 | 57 | 0 | 0.0 | 0.0 | 0.00 | 0.00 | 0.00 | 74 | 1008.1 |
| 20260509093043 | 57 | 0 | 0.0 | 1.0 | 0.00 | 0.00 | 0.00 | 74 | 1008.0 |
| 20260509092529 | 57 | 0 | 0.0 | 4.0 | 0.00 | 0.00 | 0.00 | 73 | 1008.0 |
| 20260509092031 | 58 | 0 | 0.0 | 4.0 | 0.00 | 0.00 | 0.00 | 72 | 1008.0 |
| 20260509091554 | 58 | 25 | 0.0 | 1.0 | 0.00 | 0.00 | 0.00 | 71 | 1008.2 |
| 20260509091031 | 58 | 108 | 0.0 | 0.0 | 0.00 | 0.00 | 0.00 | 71 | 1008.4 |
| 20260509090532 | 58 | 0 | 0.0 | 0.0 | 0.00 | 0.00 | 0.00 | 70 | 1008.5 |
| 20260509090047 | 58 | 0 | 0.0 | 2.0 | 0.00 | 0.00 | 0.00 | 70 | 1008.5 |
| 20260509085529 | 58 | 0 | 0.0 | 2.0 | 0.00 | 0.00 | 0.00 | 70 | 1008.5 |
| 20260509085028 | 58 | 73 | 0.0 | 2.0 | 0.00 | 0.00 | 0.00 | 69 | 1008.4 |
| 20260509084552 | 58 | 0 | 0.0 | 1.0 | 0.00 | 0.00 | 0.00 | 68 | 1008.2 |
| 20260509084029 | 58 | 0 | 0.0 | 1.0 | 0.00 | 0.00 | 0.00 | 68 | 1008.2 |
| 20260509083532 | 58 | 0 | 0.0 | 0.0 | 0.00 | 0.00 | 0.00 | 67 | 1008.1 |
| 20260509083048 | 59 | 0 | 0.0 | 1.0 | 0.00 | 0.00 | 0.00 | 67 | 1008.3 |
| 20260509082529 | 59 | 0 | 0.0 | 1.0 | 0.00 | 0.00 | 0.00 | 66 | 1008.1 |
| 20260509082028 | 59 | 0 | 0.0 | 0.0 | 0.00 | 0.00 | 0.00 | 67 | 1008.2 |
| 20260509081549 | 59 | 0 | 0.0 | 0.0 | 0.00 | 0.00 | 0.00 | 65 | 1008.4 |
| 20260509081030 | 59 | 0 | 0.0 | 0.0 | 0.00 | 0.00 | 0.00 | 63 | 1008.3 |
| 20260509080531 | 60 | 0 | 0.0 | 2.0 | 0.00 | 0.00 | 0.00 | 64 | 1008.3 |
| 20260509080045 | 60 | 0 | 0.0 | 2.0 | 0.00 | 0.00 | 0.00 | 63 | 1008.4 |
| 20260509075527 | 60 | 3 | 0.0 | 1.0 | 0.00 | 0.00 | 0.00 | 62 | 1008.4 |
| 20260509075031 | 60 | 0 | 0.0 | 3.0 | 0.00 | 0.00 | 0.00 | 62 | 1008.2 |
| 20260509074553 | 60 | 0 | 0.0 | 4.0 | 0.00 | 0.00 | 0.00 | 61 | 1008.2 |
| 20260509074028 | 60 | 177 | 0.0 | 5.0 | 0.00 | 0.00 | 0.00 | 61 | 1008.1 |
| 20260509073531 | 60 | 139 | 0.0 | 5.0 | 0.00 | 0.00 | 0.00 | 61 | 1008.2 |
| 20260509073042 | 60 | 188 | 0.0 | 3.0 | 0.00 | 0.00 | 0.00 | 60 | 1008.2 |
| 20260509072528 | 60 | 183 | 0.0 | 2.0 | 0.00 | 0.00 | 0.00 | 60 | 1008.2 |
| 20260509072030 | 60 | 0 | 0.0 | 3.0 | 0.00 | 0.00 | 0.00 | 60 | 1008.5 |
| 20260509071546 | 60 | 0 | 0.0 | 3.0 | 0.00 | 0.00 | 0.00 | 59 | 1008.5 |
| 20260509071027 | 60 | 0 | 0.0 | 3.0 | 0.00 | 0.00 | 0.00 | 59 | 1008.4 |
| 20260509070531 | 60 | 164 | 0.0 | 3.0 | 0.00 | 0.00 | 0.00 | 59 | 1008.5 |
| 20260509070045 | 60 | 179 | 0.0 | 3.0 | 0.00 | 0.00 | 0.00 | 59 | 1008.6 |
| 20260509065527 | 60 | 0 | 0.0 | 3.0 | 0.00 | 0.00 | 0.00 | 59 | 1008.7 |
| 20260509065030 | 60 | 171 | 0.0 | 2.0 | 0.00 | 0.00 | 0.00 | 59 | 1008.7 |
| 20260509064557 | 60 | 0 | 0.0 | 0.0 | 0.00 | 0.00 | 0.00 | 59 | 1009.0 |
| 20260509064032 | 60 | 174 | 0.0 | 2.0 | 0.00 | 0.00 | 0.00 | 60 | 1009.0 |
| 20260509063530 | 60 | 0 | 0.0 | 2.0 | 0.00 | 0.00 | 0.00 | 59 | 1009.1 |
| 20260509063046 | 60 | 181 | 0.0 | 2.0 | 0.00 | 0.00 | 0.00 | 59 | 1009.1 |
| 20260509062532 | 60 | 0 | 0.0 | 2.0 | 0.00 | 0.00 | 0.00 | 59 | 1009.2 |
| 20260509062033 | 60 | 176 | 0.0 | 3.0 | 0.00 | 0.00 | 0.00 | 59 | 1009.2 |
| 20260509061544 | 60 | 0 | 0.0 | 3.0 | 0.00 | 0.00 | 0.00 | 59 | 1009.2 |
| 20260509061029 | 60 | 169 | 0.0 | 3.0 | 0.00 | 0.00 | 0.00 | 58 | 1009.1 |
| 20260509060528 | 61 | 178 | 0.0 | 0.0 | 0.00 | 0.00 | 0.00 | 59 | 1009.1 |
| 20260509060039 | 61 | 0 | 0.0 | 0.0 | 0.00 | 0.00 | 0.00 | 59 | 1009.1 |
| 20260509055528 | 61 | 0 | 0.0 | 3.0 | 0.00 | 0.00 | 0.00 | 58 | 1009.1 |
| 20260509055028 | 61 | 0 | 0.0 | 3.0 | 0.00 | 0.00 | 0.00 | 58 | 1009.1 |
| 20260509054546 | 61 | 174 | 0.0 | 2.0 | 0.00 | 0.00 | 0.00 | 57 | 1009.1 |
| 20260509054032 | 61 | 153 | 0.0 | 2.0 | 0.00 | 0.00 | 0.00 | 56 | 1009.3 |
| 20260509053531 | 61 | 0 | 0.0 | 1.0 | 0.00 | 0.00 | 0.00 | 57 | 1009.2 |
| 20260509053044 | 61 | 0 | 0.0 | 2.0 | 0.00 | 0.00 | 0.00 | 56 | 1009.1 |
| 20260509052527 | 61 | 162 | 0.0 | 3.0 | 0.00 | 0.00 | 0.00 | 56 | 1008.9 |
| 20260509052030 | 61 | 0 | 1.0 | 3.0 | 0.00 | 0.00 | 0.00 | 56 | 1008.9 |
| 20260509051543 | 61 | 172 | 1.0 | 3.0 | 0.00 | 0.00 | 0.00 | 55 | 1008.9 |
| 20260509051027 | 61 | 206 | 1.0 | 3.0 | 0.00 | 0.00 | 0.00 | 55 | 1008.9 |
| 20260509050534 | 61 | 174 | 1.0 | 4.0 | 0.00 | 0.00 | 0.00 | 56 | 1008.9 |
| 20260509050044 | 61 | 168 | 1.0 | 4.0 | 0.00 | 0.00 | 0.00 | 56 | 1008.9 |
| 20260509045528 | 62 | 200 | 1.0 | 4.0 | 0.00 | 0.00 | 0.00 | 55 | 1009.0 |
| 20260509045030 | 62 | 175 | 1.0 | 3.0 | 0.00 | 0.00 | 0.00 | 56 | 1009.0 |
| 20260509044539 | 62 | 188 | 1.0 | 3.0 | 0.00 | 0.00 | 0.00 | 56 | 1009.0 |
| 20260509044029 | 62 | 164 | 0.0 | 3.0 | 0.00 | 0.00 | 0.00 | 55 | 1009.0 |
| 20260509043526 | 62 | 165 | 1.0 | 2.0 | 0.00 | 0.00 | 0.00 | 55 | 1009.0 |
| 20260509043055 | 62 | 158 | 1.0 | 2.0 | 0.00 | 0.00 | 0.00 | 55 | 1009.0 |
| 20260509042529 | 62 | 158 | 0.0 | 2.0 | 0.00 | 0.00 | 0.00 | 56 | 1009.1 |
| 20260509042029 | 62 | 163 | 0.0 | 2.0 | 0.00 | 0.00 | 0.00 | 55 | 1009.2 |
| 20260509041545 | 62 | 0 | 0.0 | 3.0 | 0.00 | 0.00 | 0.00 | 54 | 1009.2 |
| 20260509041031 | 62 | 158 | 0.0 | 4.0 | 0.00 | 0.00 | 0.00 | 55 | 1009.2 |
| 20260509040529 | 62 | 0 | 1.0 | 4.0 | 0.00 | 0.00 | 0.00 | 54 | 1009.1 |
| 20260509040050 | 62 | 196 | 1.0 | 4.0 | 0.00 | 0.00 | 0.00 | 54 | 1009.2 |
| 20260509035528 | 62 | 162 | 0.0 | 3.0 | 0.00 | 0.00 | 0.00 | 54 | 1009.3 |
| 20260509035033 | 62 | 0 | 1.0 | 3.0 | 0.00 | 0.00 | 0.00 | 54 | 1009.2 |
| 20260509034550 | 62 | 160 | 1.0 | 3.0 | 0.00 | 0.00 | 0.00 | 55 | 1009.3 |
| 20260509034031 | 62 | 173 | 1.0 | 2.0 | 0.00 | 0.00 | 0.00 | 54 | 1009.4 |
| 20260509033532 | 62 | 0 | 0.0 | 2.0 | 0.00 | 0.00 | 0.00 | 55 | 1009.6 |
| 20260509033047 | 62 | 175 | 0.0 | 2.0 | 0.00 | 0.00 | 0.00 | 54 | 1009.6 |
| 20260509032531 | 62 | 166 | 0.0 | 1.0 | 0.00 | 0.00 | 0.00 | 56 | 1009.5 |
| 20260509032028 | 62 | 153 | 0.0 | 2.0 | 0.00 | 0.00 | 0.00 | 54 | 1009.6 |
| 20260509031548 | 63 | 152 | 0.0 | 2.0 | 0.00 | 0.00 | 0.00 | 55 | 1009.6 |
| 20260509031029 | 62 | 0 | 0.0 | 2.0 | 0.00 | 0.00 | 0.00 | 55 | 1009.7 |
| 20260509030529 | 62 | 158 | 0.0 | 2.0 | 0.00 | 0.00 | 0.00 | 55 | 1009.7 |
| 20260509030044 | 62 | 150 | 0.0 | 2.0 | 0.00 | 0.00 | 0.00 | 56 | 1009.7 |
| 20260509025528 | 62 | 0 | 0.0 | 0.0 | 0.00 | 0.00 | 0.00 | 57 | 1009.7 |
| 20260509025028 | 62 | 0 | 0.0 | 1.0 | 0.00 | 0.00 | 0.00 | 57 | 1009.7 |
| 20260509024542 | 63 | 0 | 0.0 | 1.0 | 0.00 | 0.00 | 0.00 | 56 | 1009.8 |
| 20260509024028 | 63 | 0 | 0.0 | 1.0 | 0.00 | 0.00 | 0.00 | 55 | 1009.7 |
| 20260509023529 | 63 | 158 | 0.0 | 1.0 | 0.00 | 0.00 | 0.00 | 55 | 1009.9 |